Epoch 2013 Aug. 16.0 TT = JDT 2456520.5 T 2013 Aug. 16.47483 TT MPC q 1.4549422 (2000.0) P Q z +0.0015552 Peri. 217.30638 -0.12439982 -0.38817296 +/-0.0000004 Node 262.16537 +0.97457186 -0.22066114 e 0.9977373 Incl. 67.18415 -0.18637160 -0.89477953 From 813 observations 2012 Nov. 5-2014 May 16, mean residual 0".7.
m1 = 9.0 + 5 logΔ + 10.0 log r [ ,-125] ( 〜2013年 4月13日) m1 = 2.0 + 5 logΔ + 30.0 log r [-125, 0] (2013年 4月13日〜2013年 8月16日) m1 = 3.6 + 5 logΔ + 20.0 log r [ 0, ] (2013年 8月16日〜 )